COSMOS 249 DEB, 18551

Orbit data source: Space-Track

COSMOS 249 DEB, 18551 is space debris in LEO originally from a launch on Sun, 20 Oct 1968 UTC launched from the Tyuratam Missile And Space Complex (TTMTR). Debris objects in space refer to the collection of defunct objects orbiting the Earth. Examples of debris include non-operational satellites, rocket bodies, and fragments generated from explosions, collisions, or faulty payload assembly.

Loading next visibility...
Identifier
18551, 1968-091DF
Orbit
LEO
Country
Flag of CISCIS
Related business
Manufacturer
Unknown
Mission
Spacecraft
Bus & Motor
Unknown
Mass
Unknown
Launch date (UTC)
1968-10-20 (58 years ago)
Launch vehicle
Unknown
Launch site
Tyuratam Missile And Space Complex (TTMTR)
Object type
Payload
Rocket body
Debris
Shape & HBR
Unknown shape, 0.1 m
Radar Cross Section
Medium (>0.1 m² and <1 m²)

Expand to show TLE details & history
Last TLE update: 1 day ago

TLE from 1 day ago
0 COSMOS 249 DEB
1 18551U 68091DF  26235.35480513  .00001695  00000-0  78501-3 0  9996
2 18551  62.2992 319.6261 0692238 206.1599 285.8529 13.40071559655530
Epoch: 2026-08-23T08:30Z
TLE epoch observation values (Epoch: 2026-08-23T08:30:55.163Z)
Latitude
47.18192°
Longitude
5.9335°
Altitude
1,007.589 km
Speed
7.405 km/s
True Right ascension
07h 01m 15s
True Declination
47° 00' 58"
Sunlit
Object was in daylight at epoch
Visualization orbit readout
Latitude
Unknown
Longitude
Unknown
Altitude
Unknown
Speed
Unknown
Apparent Right ascension
Unknown
Apparent Declination
Unknown
Sunlit
N/A
Visualization observer readout
Local Sidereal Time
00:48:38
Azimuth
Unknown
Elevation
Unknown
Doppler factor
Unknown
Orbital elements
Apogee altitude
1,626.193 km
Perigee altitude
589.758 km
Semi-major axis
7,486.112 km
Eccentricity
0.06922
Inclination
62.2992°
RAAN
319.6261°
Arg. of periapsis
206.1599°
True anomaly
278.06173°
Mean anomaly
285.8529°
Eccentric anomaly
281.97295°
Mean motion
3.35088 °/min
Orbital period
107.43 mins
BSTAR
0.00078501
Loading maneuver chart data...
Computing Atmospheric mass density...
Loading historical data...
Loading historical data...
Loading historical data...
Loading historical data...
Loading historical data...
Loading historical data...
Loading historical data...

Documentation

Showing up to 5 results
|